{"data":{"norad_id":56955,"intl_designator":"2023-084Z","name":"BLACKJACK ACES-2","alt_names":[],"object_type":"PAYLOAD","status":"ACTIVE","operator":null,"country":"US","launch_date":"2023-06-12","launch_site_code":"AFWTR","launch_vehicle":null,"mission":null,"orbit_class":"UNKNOWN","rcs_meters":null,"size_class":null,"mass_kg":null,"dimensions":null,"purposes":[],"wikipedia_slug":null,"has_3d_model":false,"image_url":null,"decayed_at":null,"tle_current":{"epoch":"2026-09-21T21:26:49.053120Z","epoch_age_seconds":79465,"freshness":"FRESH","line1":"1 56955U 23084Z   26264.89362330  .00004043  00000+0  19743-3 0  9998","line2":"2 56955  97.6335  41.0190 0001475  59.5572 300.5808 15.18851570181858","mean_motion":15.1885157,"eccentricity":0.0001475,"inclination_deg":97.6335,"raan_deg":41.019,"arg_perigee_deg":59.5572,"mean_anomaly_deg":300.5808,"bstar":0.00019743,"rev_number":18185,"period_min":94.808474273757,"perigee_km":508.29434132607,"apogee_km":510.32613826181,"semimajor_km":6887.4472397939,"source":"CELESTRAK","updated_at":"2026-09-22T09:00:25.994118Z"}}}